Content
SEND FEEDBACK

Daily
Averages
Monthly
Summary
United States of America

SAULT STE. MARIE, MICHIGAN


Home > North America > United States > Michigan
Elevation: 699 feet     Latitude: 46 28N     Longitude: 084 22W

WEATHER
 
SELECT A DAY
Number of Records: 215,791;   Date Range: 1/1/95 - 9/14/14
 
SHARE

PRINT THIS DATA

[ ← Previous Day ]
WEATHER ALMANAC - FEBRUARY 13, 2013
[ Next Day → ]
[ °C ]   °F
Weather ElementAverageHighLow
Temperature25.2 °F35.1 °F (3:55 pm)15.1 °F (3:48 am)
Dewpoint18.7 °F25 °F (11:55 pm)10.9 °F (1:55 am)
Humidity77.1 %85 % (6:55 am)57 % (3:55 pm)
Barometer29.68 in29.79 in (12:55 am)29.63 in (12:25 pm)
Wind Speed2.8 mph8.1 mph (1:55 pm)
Weather ElementAverage
Visibility8.8 mi
Wind DirectionE (94.2 °)

Weather ElementTotal
Precipitation---
Heating Degree Days39.9 (Base 65)
Averaged from 31 records on February 13, 2013
WEATHER CONDITIONS BREAKOUT
WIND DIRECTION BREAKOUT
WEATHER BY HOUR - FEBRUARY 13, 2013
[ °C ]   °F
Local TimeTemperatureDewpointHumidityBarometerVisibilityWind DirectionWind SpeedGust SpeedPrecipitationEventsConditions
12:55 AM19.0 °F12.9 °F77 %29.79 in10.0 miSSE (160°)3.5 mphOvercast
1:55 AM17.1 °F10.9 °F77 %29.76 in10.0 miSSE (150°)3.5 mphOvercast
2:55 AM17.1 °F12.0 °F81 %29.75 in10.0 miCalmOvercast
3:16 AM17.1 °F12.0 °F81 %29.72 in10.0 miEast (90°)3.5 mphOvercast
3:48 AM15.1 °F10.9 °F84 %29.72 in10.0 miENE (70°)3.5 mphScattered Clouds
3:55 AM15.1 °F10.9 °F84 %29.75 in10.0 miNE (50°)3.5 mphMostly Cloudy
4:55 AM17.1 °F12.9 °F84 %29.73 in10.0 miEast (90°)3.5 mphOvercast
5:55 AM18.0 °F14.0 °F84 %29.71 in10.0 miEast (90°)3.5 mphOvercast
6:55 AM19.9 °F16.0 °F85 %29.70 in10.0 miCalmOvercast
7:55 AM21.0 °F17.1 °F85 %29.69 in10.0 miCalmOvercast
8:22 AM21.9 °F17.1 °F82 %29.66 in9.0 miCalmOvercast
8:55 AM21.9 °F18.0 °F85 %29.68 in8.0 miCalmOvercast
9:32 AM24.1 °F19.0 °F81 %29.65 in8.0 miCalmOvercast
9:55 AM25.0 °F19.9 °F81 %29.68 in8.0 miCalmOvercast
10:43 AM28.9 °F23.0 °F78 %29.64 in7.0 miCalmOvercast
10:55 AM28.0 °F21.9 °F78 %29.67 in8.0 miCalmOvercast
11:32 AM28.9 °F23.0 °F78 %29.64 in7.0 miWSW (250°)5.8 mphOvercast
11:55 AM30.0 °F23.0 °F75 %29.66 in8.0 miVariable3.5 mphOvercast
12:25 PM30.9 °F21.9 °F69 %29.63 in8.0 miWest (270°)5.8 mphScattered Clouds
12:55 PM30.9 °F21.0 °F67 %29.65 in9.0 miWest (280°)6.9 mphPartly Cloudy
1:55 PM33.1 °F21.0 °F61 %29.65 in10.0 miNW (320°)8.1 mphClear
2:55 PM33.1 °F21.0 °F61 %29.64 in10.0 miNNW (330°)5.8 mphMostly Cloudy
3:55 PM35.1 °F21.0 °F57 %29.65 in10.0 miVariable3.5 mphOvercast
4:55 PM34.0 °F21.9 °F61 %29.65 in10.0 miCalmOvercast
5:55 PM32.0 °F21.0 °F64 %29.65 in9.0 miCalmPartly Cloudy
6:55 PM28.0 °F19.9 °F72 %29.67 in10.0 miSouth (190°)3.5 mphClear
7:55 PM28.0 °F21.9 °F78 %29.68 in9.0 miSW (220°)5.8 mphClear
8:55 PM25.0 °F21.0 °F85 %29.68 in7.0 miESE (120°)3.5 mphMostly Cloudy
9:55 PM28.0 °F24.1 °F85 %29.67 in6.0 miESE (120°)3.5 mphOvercast
10:55 PM28.0 °F24.1 °F85 %29.67 in6.0 miCalmOvercast
11:55 PM28.9 °F25.0 °F85 %29.66 in6.0 miESE (120°)5.8 mphOvercast
Hourly data recorded from KANJ, located miles away from Sault Ste. Marie, Michigan







STORIES FROM OUR PARTNERS